JZA1508 CYYZ-KEWR

Flight info

Callsign JZA1508
Flight time 1h 8m
Altitude 25000
Route MAVAN3 BMPAH DCT AEVON DCT EXTOL DCT HNK/N0317F170 V167 WEARD/N0315F160 V489 COATE
Aircraft DH8D/M-SDE2E3FGRY/H

Departure

Time 2026-05-06 13:32
Airport Toronto Pearson International Airport (CYYZ)

Arrival

Time 2026-05-06 14:40
Airport Newark Liberty International Airport (KEWR)
Time Latitude Longitude Altitude Speed Heading
2026-05-06 12:54 43.68341 -79.61625 551 ft 0 kts 269°
2026-05-06 13:18 43.68341 -79.61626 550 ft 0 kts 269°
2026-05-06 13:18 43.68343 -79.61633 550 ft 1 kts 304°
2026-05-06 13:19 43.68354 -79.61636 550 ft 2 kts
2026-05-06 13:19 43.68390 -79.61631 550 ft 6 kts 351°
2026-05-06 13:19 43.68415 -79.61678 551 ft 6 kts 250°
2026-05-06 13:19 43.68383 -79.61727 550 ft 6 kts 223°
2026-05-06 13:20 43.68344 -79.61758 550 ft 6 kts 200°
2026-05-06 13:20 43.68304 -79.61764 550 ft 6 kts 174°
2026-05-06 13:20 43.68255 -79.61755 550 ft 8 kts 171°
2026-05-06 13:20 43.68192 -79.61742 550 ft 10 kts 171°
2026-05-06 13:21 43.68120 -79.61743 550 ft 9 kts 213°
2026-05-06 13:21 43.68065 -79.61819 550 ft 12 kts 226°
2026-05-06 13:21 43.68002 -79.61914 550 ft 14 kts 242°
2026-05-06 13:21 43.67962 -79.62035 551 ft 10 kts 226°
2026-05-06 13:22 43.67891 -79.62055 550 ft 12 kts 159°
2026-05-06 13:22 43.67822 -79.61974 550 ft 13 kts 136°
2026-05-06 13:22 43.67753 -79.61884 551 ft 12 kts 135°
2026-05-06 13:22 43.67679 -79.61786 551 ft 19 kts 136°
2026-05-06 13:23 43.67557 -79.61626 551 ft 25 kts 135°
2026-05-06 13:23 43.67453 -79.61488 549 ft 14 kts 137°
2026-05-06 13:23 43.67379 -79.61392 544 ft 14 kts 136°
2026-05-06 13:23 43.67310 -79.61302 539 ft 13 kts 136°
2026-05-06 13:24 43.67232 -79.61270 536 ft 11 kts 210°
2026-05-06 13:24 43.67163 -79.61251 534 ft 10 kts 136°
2026-05-06 13:24 43.67099 -79.61231 532 ft 9 kts 211°
2026-05-06 13:24 43.67047 -79.61304 532 ft 13 kts 227°
2026-05-06 13:25 43.66973 -79.61410 533 ft 16 kts 226°
2026-05-06 13:25 43.66891 -79.61530 536 ft 17 kts 226°
2026-05-06 13:25 43.66803 -79.61657 539 ft 19 kts 225°
2026-05-06 13:25 43.66704 -79.61797 540 ft 21 kts 226°
2026-05-06 13:26 43.66602 -79.61951 541 ft 22 kts 226°
2026-05-06 13:26 43.66505 -79.62100 537 ft 19 kts 246°
2026-05-06 13:26 43.66471 -79.62263 534 ft 17 kts 224°
2026-05-06 13:26 43.66420 -79.62326 531 ft 17 kts 222°
2026-05-06 13:27 43.66377 -79.62380 528 ft 14 kts 221°
2026-05-06 13:27 43.66355 -79.62407 527 ft 3 kts 221°
2026-05-06 13:28 43.66345 -79.62420 526 ft 11 kts 223°
2026-05-06 13:28 43.66339 -79.62427 526 ft 12 kts 224°
2026-05-06 13:28 43.66270 -79.62502 521 ft 8 kts 197°
2026-05-06 13:28 43.66202 -79.62467 519 ft 9 kts 135°
2026-05-06 13:29 43.66169 -79.62424 519 ft 6 kts 135°
2026-05-06 13:29 43.66125 -79.62340 519 ft 10 kts 104°
2026-05-06 13:29 43.66141 -79.62292 520 ft 0 kts 46°
2026-05-06 13:31 43.66143 -79.62289 520 ft 5 kts 46°
2026-05-06 13:31 43.66398 -79.61915 532 ft 97 kts 47°
2026-05-06 13:31 43.67018 -79.61015 559 ft 150 kts 44°
2026-05-06 13:31 43.67746 -79.60002 1135 ft 148 kts 44°
2026-05-06 13:32 43.68462 -79.58965 1697 ft 157 kts 43°
2026-05-06 13:32 43.69237 -79.57802 2110 ft 173 kts 43°
2026-05-06 13:32 43.70045 -79.56592 2814 ft 173 kts 42°
2026-05-06 13:32 43.70893 -79.55252 3187 ft 195 kts 49°
2026-05-06 13:33 43.71746 -79.53857 3924 ft 193 kts 45°
2026-05-06 13:33 43.72635 -79.52450 4410 ft 200 kts 45°
2026-05-06 13:33 43.73427 -79.50867 4908 ft 203 kts 71°
2026-05-06 13:33 43.73334 -79.48990 5360 ft 202 kts 119°
2026-05-06 13:34 43.72313 -79.47788 5808 ft 196 kts 166°
2026-05-06 13:34 43.70972 -79.47564 6335 ft 195 kts 180°
2026-05-06 13:34 43.69615 -79.47521 6885 ft 196 kts 181°
2026-05-06 13:34 43.68272 -79.47532 7478 ft 195 kts 184°
2026-05-06 13:35 43.66911 -79.47580 8042 ft 196 kts 186°
2026-05-06 13:35 43.65563 -79.47657 8630 ft 196 kts 187°
2026-05-06 13:35 43.64095 -79.47675 8648 ft 231 kts 175°
2026-05-06 13:35 43.62627 -79.46558 8850 ft 258 kts 135°
2026-05-06 13:36 43.61555 -79.44551 9268 ft 266 kts 128°
2026-05-06 13:36 43.60479 -79.42429 9748 ft 270 kts 129°
2026-05-06 13:36 43.59401 -79.40344 10242 ft 273 kts 130°
2026-05-06 13:36 43.58281 -79.38221 10740 ft 276 kts 131°
2026-05-06 13:37 43.57135 -79.36079 11307 ft 277 kts 132°
2026-05-06 13:37 43.55987 -79.33961 11800 ft 279 kts 133°
2026-05-06 13:37 43.54808 -79.31797 12317 ft 282 kts 133°
2026-05-06 13:37 43.53643 -79.29667 12803 ft 284 kts 134°
2026-05-06 13:38 43.52454 -79.27509 13340 ft 284 kts 134°
2026-05-06 13:38 43.51257 -79.25342 13801 ft 286 kts 135°
2026-05-06 13:38 43.50040 -79.23133 14093 ft 292 kts 134°
2026-05-06 13:38 43.48810 -79.20924 14520 ft 292 kts 134°
2026-05-06 13:39 43.47573 -79.18705 14946 ft 294 kts 134°
2026-05-06 13:39 43.46334 -79.16479 15373 ft 296 kts 134°
2026-05-06 13:39 43.45069 -79.14221 15753 ft 298 kts 135°
2026-05-06 13:39 43.43946 -79.11808 16117 ft 308 kts 121°
2026-05-06 13:40 43.42807 -79.08159 16591 ft 314 kts 118°
2026-05-06 13:40 43.42244 -79.06305 16818 ft 317 kts 118°
2026-05-06 13:40 43.41402 -79.03543 17202 ft 317 kts 118°
2026-05-06 13:40 43.40539 -79.00725 17495 ft 320 kts 118°
2026-05-06 13:41 43.39671 -78.97901 17795 ft 325 kts 118°
2026-05-06 13:41 43.38789 -78.95056 18115 ft 325 kts 118°
2026-05-06 13:41 43.37900 -78.92181 18445 ft 327 kts 118°
2026-05-06 13:41 43.37014 -78.89329 18748 ft 329 kts 118°
2026-05-06 13:42 43.36114 -78.86439 19032 ft 331 kts 118°
2026-05-06 13:42 43.35208 -78.83534 19367 ft 331 kts 118°
2026-05-06 13:42 43.34287 -78.80592 19590 ft 334 kts 118°
2026-05-06 13:42 43.33366 -78.77651 19867 ft 336 kts 118°
2026-05-06 13:43 43.32446 -78.74712 20074 ft 339 kts 118°
2026-05-06 13:43 43.31518 -78.71751 20345 ft 339 kts 118°
2026-05-06 13:43 43.30577 -78.68753 20556 ft 340 kts 118°
2026-05-06 13:43 43.29649 -78.65807 20805 ft 340 kts 118°
2026-05-06 13:44 43.28697 -78.62781 20954 ft 343 kts 118°
2026-05-06 13:44 43.27749 -78.59783 21126 ft 345 kts 118°
2026-05-06 13:44 43.26803 -78.56785 21373 ft 344 kts 118°
2026-05-06 13:44 43.25854 -78.53773 21589 ft 344 kts 118°
2026-05-06 13:45 43.24913 -78.50794 21786 ft 344 kts 119°
2026-05-06 13:45 43.23001 -78.44769 22069 ft 348 kts 118°
2026-05-06 13:45 43.22031 -78.41716 22299 ft 345 kts 118°
2026-05-06 13:46 43.21070 -78.38689 22314 ft 351 kts 119°
2026-05-06 13:46 43.20110 -78.35663 22565 ft 348 kts 118°
2026-05-06 13:46 43.19091 -78.32608 22684 ft 345 kts 125°
2026-05-06 13:46 43.17733 -78.29971 22795 ft 335 kts 137°
2026-05-06 13:47 43.16255 -78.27508 22942 ft 335 kts 137°
2026-05-06 13:47 43.14764 -78.25028 22948 ft 340 kts 137°
2026-05-06 13:47 43.13271 -78.22553 22946 ft 342 kts 137°
2026-05-06 13:47 43.11752 -78.20028 22945 ft 342 kts 137°
2026-05-06 13:48 43.10245 -78.17521 22951 ft 341 kts 136°
2026-05-06 13:48 43.08736 -78.15010 22944 ft 341 kts 136°
2026-05-06 13:48 43.07251 -78.12540 22947 ft 341 kts 136°
2026-05-06 13:48 43.05730 -78.10007 22946 ft 341 kts 136°
2026-05-06 13:49 43.04234 -78.07516 22943 ft 341 kts 136°
2026-05-06 13:49 43.02734 -78.05019 22920 ft 342 kts 136°
2026-05-06 13:49 43.01213 -78.02489 22870 ft 343 kts 136°
2026-05-06 13:49 42.99710 -77.99989 22838 ft 343 kts 136°
2026-05-06 13:50 42.98204 -77.97486 22836 ft 343 kts 136°
2026-05-06 13:50 42.96690 -77.94970 22834 ft 343 kts 136°
2026-05-06 13:50 42.95176 -77.92457 22843 ft 343 kts 136°
2026-05-06 13:50 42.93671 -77.89963 22841 ft 342 kts 136°
2026-05-06 13:51 42.92155 -77.87424 22841 ft 344 kts 134°
2026-05-06 13:51 42.91055 -77.84508 22849 ft 357 kts 113°
2026-05-06 13:51 42.90378 -77.81224 22838 ft 359 kts 110°
2026-05-06 13:51 42.89740 -77.77961 22834 ft 360 kts 109°
2026-05-06 13:52 42.89098 -77.74680 22843 ft 359 kts 109°
2026-05-06 13:52 42.88450 -77.71385 22842 ft 359 kts 109°
2026-05-06 13:52 42.87799 -77.68102 22830 ft 360 kts 110°
2026-05-06 13:52 42.87141 -77.64799 22835 ft 360 kts 109°
2026-05-06 13:53 42.86488 -77.61530 22847 ft 361 kts 110°
2026-05-06 13:53 42.85827 -77.58235 22831 ft 361 kts 109°
2026-05-06 13:53 42.85165 -77.54943 22842 ft 361 kts 109°
2026-05-06 13:53 42.84500 -77.51645 22847 ft 361 kts 109°
2026-05-06 13:54 42.83830 -77.48328 22833 ft 361 kts 110°
2026-05-06 13:54 42.83172 -77.45070 22831 ft 361 kts 109°
2026-05-06 13:54 42.82504 -77.41779 22839 ft 362 kts 109°
2026-05-06 13:54 42.81828 -77.38461 22841 ft 362 kts 110°
2026-05-06 13:55 42.81163 -77.35196 22833 ft 362 kts 110°
2026-05-06 13:55 42.80486 -77.31877 22821 ft 362 kts 110°
2026-05-06 13:55 42.79813 -77.28580 22833 ft 361 kts 111°
2026-05-06 13:55 42.79140 -77.25296 22833 ft 361 kts 110°
2026-05-06 13:56 42.78471 -77.22031 22840 ft 361 kts 110°
2026-05-06 13:56 42.77801 -77.18767 22842 ft 361 kts 110°
2026-05-06 13:56 42.77120 -77.15472 22851 ft 360 kts 110°
2026-05-06 13:56 42.76440 -77.12184 22830 ft 361 kts 110°
2026-05-06 13:57 42.75764 -77.08923 22820 ft 361 kts 111°
2026-05-06 13:57 42.75079 -77.05622 22829 ft 361 kts 111°
2026-05-06 13:57 42.74404 -77.02371 22832 ft 361 kts 111°
2026-05-06 13:57 42.73729 -76.99099 22837 ft 361 kts 110°
2026-05-06 13:58 42.73046 -76.95802 22827 ft 361 kts 111°
2026-05-06 13:58 42.72372 -76.92557 22833 ft 361 kts 111°
2026-05-06 13:58 42.71686 -76.89278 22845 ft 360 kts 111°
2026-05-06 13:58 42.71003 -76.86007 22848 ft 360 kts 111°
2026-05-06 13:59 42.70318 -76.82747 22847 ft 359 kts 111°
2026-05-06 13:59 42.69637 -76.79491 22820 ft 361 kts 111°
2026-05-06 13:59 42.68949 -76.76215 22822 ft 360 kts 111°
2026-05-06 13:59 42.68267 -76.72929 22812 ft 360 kts 111°
2026-05-06 14:00 42.67580 -76.69682 22801 ft 361 kts 111°
2026-05-06 14:00 42.66884 -76.66396 22827 ft 360 kts 111°
2026-05-06 14:00 42.66192 -76.63158 22836 ft 359 kts 112°
2026-05-06 14:00 42.65210 -76.60099 22825 ft 348 kts 127°
2026-05-06 14:01 42.63960 -76.57282 22808 ft 349 kts 129°
2026-05-06 14:01 42.62704 -76.54510 22836 ft 348 kts 129°
2026-05-06 14:01 42.61433 -76.51707 22829 ft 348 kts 128°
2026-05-06 14:01 42.60169 -76.48907 22816 ft 350 kts 129°
2026-05-06 14:02 42.58894 -76.46074 22825 ft 349 kts 129°
2026-05-06 14:02 42.57620 -76.43251 22820 ft 350 kts 129°
2026-05-06 14:02 42.56364 -76.40463 22819 ft 350 kts 128°
2026-05-06 14:02 42.55094 -76.37637 22815 ft 350 kts 129°
2026-05-06 14:03 42.53831 -76.34836 22816 ft 350 kts 129°
2026-05-06 14:03 42.52569 -76.32037 22813 ft 350 kts 129°
2026-05-06 14:03 42.51300 -76.29224 22827 ft 348 kts 129°
2026-05-06 14:03 42.50025 -76.26402 22815 ft 349 kts 129°
2026-05-06 14:04 42.48769 -76.23629 22737 ft 351 kts 129°
2026-05-06 14:04 42.47477 -76.20779 22618 ft 355 kts 129°
2026-05-06 14:04 42.46182 -76.17928 22468 ft 357 kts 129°
2026-05-06 14:04 42.44888 -76.15086 22342 ft 360 kts 129°
2026-05-06 14:05 42.43575 -76.12190 22225 ft 362 kts 129°
2026-05-06 14:05 42.42255 -76.09285 22111 ft 363 kts 129°
2026-05-06 14:05 42.40926 -76.06365 21983 ft 364 kts 129°
2026-05-06 14:05 42.39592 -76.03431 21862 ft 366 kts 129°
2026-05-06 14:06 42.38265 -76.00521 21718 ft 367 kts 129°
2026-05-06 14:06 42.36920 -75.97566 21599 ft 368 kts 129°
2026-05-06 14:06 42.35585 -75.94637 21472 ft 369 kts 129°
2026-05-06 14:06 42.34236 -75.91676 21361 ft 368 kts 128°
2026-05-06 14:07 42.32895 -75.88741 21232 ft 369 kts 127°
2026-05-06 14:07 42.31542 -75.85783 21081 ft 369 kts 128°
2026-05-06 14:07 42.30194 -75.82845 20973 ft 369 kts 128°
2026-05-06 14:07 42.28844 -75.79898 20866 ft 369 kts 128°
2026-05-06 14:08 42.27484 -75.76951 20751 ft 370 kts 128°
2026-05-06 14:08 42.26148 -75.74031 20636 ft 364 kts 129°
2026-05-06 14:08 42.24847 -75.71188 20474 ft 354 kts 129°
2026-05-06 14:08 42.23570 -75.68399 20250 ft 343 kts 128°
2026-05-06 14:09 42.22331 -75.65710 20041 ft 335 kts 129°
2026-05-06 14:09 42.21091 -75.63027 19837 ft 337 kts 129°
2026-05-06 14:09 42.19848 -75.60355 19643 ft 341 kts 129°
2026-05-06 14:09 42.18586 -75.57643 19451 ft 344 kts 128°
2026-05-06 14:10 42.17327 -75.54914 19246 ft 345 kts 129°
2026-05-06 14:10 42.16047 -75.52158 19087 ft 347 kts 128°
2026-05-06 14:10 42.14772 -75.49408 18907 ft 349 kts 129°
2026-05-06 14:10 42.13488 -75.46629 18718 ft 350 kts 129°
2026-05-06 14:11 42.12203 -75.43857 18509 ft 351 kts 129°
2026-05-06 14:11 42.10895 -75.41044 18312 ft 352 kts 129°
2026-05-06 14:11 42.09614 -75.38278 18125 ft 352 kts 130°
2026-05-06 14:11 42.08314 -75.35497 17935 ft 352 kts 129°
2026-05-06 14:12 42.07002 -75.32686 17747 ft 351 kts 129°
2026-05-06 14:12 42.05798 -75.29829 17568 ft 354 kts 125°
2026-05-06 14:12 42.04697 -75.26900 17373 ft 356 kts 124°
2026-05-06 14:12 42.03584 -75.23911 17177 ft 354 kts 125°
2026-05-06 14:13 42.02488 -75.20978 16981 ft 354 kts 123°
2026-05-06 14:13 42.01376 -75.18008 16796 ft 354 kts 124°
2026-05-06 14:13 42.00279 -75.15088 16819 ft 347 kts 124°
2026-05-06 14:13 41.99202 -75.12230 16824 ft 344 kts 125°
2026-05-06 14:14 41.98114 -75.09354 16823 ft 342 kts 124°
2026-05-06 14:14 41.97040 -75.06517 16819 ft 340 kts 125°
2026-05-06 14:14 41.95981 -75.03721 16808 ft 338 kts 125°
2026-05-06 14:14 41.94916 -75.00910 16824 ft 337 kts 125°
2026-05-06 14:15 41.93864 -74.98126 16823 ft 335 kts 126°
2026-05-06 14:15 41.92802 -74.95330 16799 ft 335 kts 124°
2026-05-06 14:15 41.91695 -74.92653 16809 ft 324 kts 134°
2026-05-06 14:15 41.90100 -74.90783 16832 ft 292 kts 162°
2026-05-06 14:16 41.88219 -74.89844 16827 ft 282 kts 173°
2026-05-06 14:16 41.86343 -74.89111 16870 ft 279 kts 173°
2026-05-06 14:16 41.84597 -74.88490 16827 ft 278 kts 174°
2026-05-06 14:16 41.82722 -74.87863 16824 ft 277 kts 176°
2026-05-06 14:17 41.80832 -74.87277 16835 ft 277 kts 176°
2026-05-06 14:17 41.78953 -74.86713 16842 ft 277 kts 176°
2026-05-06 14:17 41.77074 -74.86166 16836 ft 278 kts 176°
2026-05-06 14:17 41.75166 -74.85622 16835 ft 278 kts 177°
2026-05-06 14:18 41.73282 -74.85098 16834 ft 278 kts 177°
2026-05-06 14:18 41.71380 -74.84568 16861 ft 277 kts 177°
2026-05-06 14:18 41.69495 -74.84052 16815 ft 278 kts 176°
2026-05-06 14:18 41.67596 -74.83532 16893 ft 276 kts 178°
2026-05-06 14:19 41.65705 -74.83028 16854 ft 278 kts 177°
2026-05-06 14:19 41.63811 -74.82523 16841 ft 279 kts 178°
2026-05-06 14:19 41.61905 -74.82017 16845 ft 279 kts 178°
2026-05-06 14:19 41.59993 -74.81510 16839 ft 280 kts 177°
2026-05-06 14:20 41.58078 -74.81001 16850 ft 280 kts 177°
2026-05-06 14:20 41.56186 -74.80502 16852 ft 280 kts 176°
2026-05-06 14:20 41.54250 -74.79988 16851 ft 280 kts 178°
2026-05-06 14:20 41.52354 -74.79489 16853 ft 280 kts 177°
2026-05-06 14:21 41.50435 -74.78979 16852 ft 281 kts 177°
2026-05-06 14:21 41.48519 -74.78472 16854 ft 281 kts 178°
2026-05-06 14:21 41.46603 -74.77965 16861 ft 280 kts 178°
2026-05-06 14:21 41.44678 -74.77458 16850 ft 280 kts 178°
2026-05-06 14:22 41.42767 -74.76953 16855 ft 281 kts 178°
2026-05-06 14:22 41.40844 -74.76447 16866 ft 282 kts 178°
2026-05-06 14:22 41.38916 -74.75951 16866 ft 282 kts 177°
2026-05-06 14:22 41.36987 -74.75436 16864 ft 283 kts 177°
2026-05-06 14:23 41.35029 -74.74926 16862 ft 284 kts 178°
2026-05-06 14:23 41.33104 -74.74420 16865 ft 284 kts 177°
2026-05-06 14:23 41.31168 -74.73907 16860 ft 284 kts 177°
2026-05-06 14:23 41.29236 -74.73401 16861 ft 284 kts 178°
2026-05-06 14:24 41.27274 -74.72887 16864 ft 284 kts 177°
2026-05-06 14:24 41.25332 -74.72379 16789 ft 286 kts 178°
2026-05-06 14:24 41.23399 -74.71869 16524 ft 283 kts 177°
2026-05-06 14:24 41.21485 -74.71363 16197 ft 281 kts 176°
2026-05-06 14:25 41.19562 -74.70853 15856 ft 280 kts 176°
2026-05-06 14:25 41.17645 -74.70346 15504 ft 279 kts 176°
2026-05-06 14:25 41.15765 -74.69849 15147 ft 279 kts 176°
2026-05-06 14:25 41.13898 -74.68927 14685 ft 298 kts 153°
2026-05-06 14:26 41.12525 -74.66811 14315 ft 313 kts 129°
2026-05-06 14:26 41.11461 -74.64281 13919 ft 311 kts 126°
2026-05-06 14:26 41.10442 -74.61790 13538 ft 307 kts 126°
2026-05-06 14:26 41.09423 -74.59313 13141 ft 303 kts 127°
2026-05-06 14:27 41.08419 -74.56888 12737 ft 301 kts 126°
2026-05-06 14:27 41.07417 -74.54484 12334 ft 298 kts 127°
2026-05-06 14:27 41.06413 -74.52087 11937 ft 295 kts 127°
2026-05-06 14:27 41.05431 -74.49754 11543 ft 292 kts 127°
2026-05-06 14:28 41.04431 -74.47388 11152 ft 289 kts 127°
2026-05-06 14:28 41.03462 -74.45097 10758 ft 287 kts 127°
2026-05-06 14:28 41.02488 -74.42798 10360 ft 284 kts 127°
2026-05-06 14:28 41.01528 -74.40537 9973 ft 281 kts 127°
2026-05-06 14:29 41.00573 -74.38290 9585 ft 278 kts 127°
2026-05-06 14:29 40.99623 -74.36067 9195 ft 276 kts 127°
2026-05-06 14:29 40.98683 -74.33868 8797 ft 274 kts 128°
2026-05-06 14:29 40.97758 -74.31697 8391 ft 266 kts 127°
2026-05-06 14:30 40.96872 -74.29610 7976 ft 259 kts 128°
2026-05-06 14:30 40.95971 -74.27573 7494 ft 254 kts 130°
2026-05-06 14:30 40.95072 -74.25568 7023 ft 250 kts 129°
2026-05-06 14:30 40.94207 -74.23619 6564 ft 248 kts 128°
2026-05-06 14:31 40.93342 -74.21653 6085 ft 245 kts 127°
2026-05-06 14:31 40.92494 -74.19707 5619 ft 242 kts 128°
2026-05-06 14:31 40.91670 -74.17806 5198 ft 238 kts 127°
2026-05-06 14:31 40.90855 -74.15919 4781 ft 234 kts 127°
2026-05-06 14:32 40.90055 -74.14067 4353 ft 231 kts 126°
2026-05-06 14:32 40.89267 -74.12239 3958 ft 227 kts 127°
2026-05-06 14:32 40.88487 -74.10444 3641 ft 220 kts 127°
2026-05-06 14:32 40.87740 -74.08727 3314 ft 216 kts 128°
2026-05-06 14:33 40.86769 -74.07396 3066 ft 185 kts 164°
2026-05-06 14:33 40.85646 -74.07329 3018 ft 148 kts 197°
2026-05-06 14:33 40.84234 -74.07819 3026 ft 165 kts 200°
2026-05-06 14:33 40.83487 -74.08101 3018 ft 164 kts 200°
2026-05-06 14:34 40.82424 -74.08516 3002 ft 157 kts 201°
2026-05-06 14:34 40.81393 -74.08935 3001 ft 149 kts 201°
2026-05-06 14:34 40.80412 -74.09235 2967 ft 144 kts 194°
2026-05-06 14:34 40.79416 -74.09272 2840 ft 137 kts 184°
2026-05-06 14:35 40.78529 -74.09080 2670 ft 125 kts 175°
2026-05-06 14:35 40.77668 -74.08723 2584 ft 133 kts 168°
2026-05-06 14:35 40.76826 -74.08160 2569 ft 141 kts 158°
2026-05-06 14:35 40.76012 -74.07336 2507 ft 155 kts 148°
2026-05-06 14:36 40.75225 -74.06376 2279 ft 145 kts 153°
2026-05-06 14:36 40.74381 -74.05771 1940 ft 130 kts 167°
2026-05-06 14:36 40.73581 -74.05464 1702 ft 117 kts 178°
2026-05-06 14:36 40.72771 -74.05486 1675 ft 117 kts 197°
2026-05-06 14:37 40.71979 -74.05868 1642 ft 125 kts 207°
2026-05-06 14:37 40.71201 -74.06414 1668 ft 126 kts 211°
2026-05-06 14:37 40.70501 -74.07105 1700 ft 125 kts 221°
2026-05-06 14:37 40.70016 -74.08056 1540 ft 130 kts 239°
2026-05-06 14:38 40.69775 -74.09244 1364 ft 138 kts 256°
2026-05-06 14:38 40.69763 -74.10504 1165 ft 134 kts 266°
2026-05-06 14:38 40.69859 -74.11730 981 ft 139 kts 265°
2026-05-06 14:38 40.69919 -74.13013 585 ft 140 kts 266°
2026-05-06 14:39 40.70050 -74.14681 257 ft 141 kts 263°
2026-05-06 14:39 40.70114 -74.15565 116 ft 147 kts 264°
2026-05-06 14:39 40.70187 -74.16778 29 ft 97 kts 276°
2026-05-06 14:39 40.70235 -74.17394 29 ft 50 kts 274°
2026-05-06 14:40 40.70232 -74.17676 29 ft 22 kts 251°
2026-05-06 14:40 40.70178 -74.17829 29 ft 11 kts 251°
2026-05-06 14:40 40.70165 -74.17879 29 ft 10 kts 251°
2026-05-06 14:40 40.70122 -74.17918 29 ft 11 kts 181°
2026-05-06 14:41 40.70071 -74.17863 29 ft 12 kts 95°
2026-05-06 14:41 40.70067 -74.17748 29 ft 12 kts 94°
2026-05-06 14:41 40.70062 -74.17635 29 ft 12 kts 94°
2026-05-06 14:41 40.70054 -74.17526 29 ft 11 kts 96°
2026-05-06 14:42 40.70047 -74.17423 29 ft 11 kts 95°
2026-05-06 14:42 40.70039 -74.17325 29 ft 10 kts 97°
2026-05-06 14:42 40.70034 -74.17229 29 ft 10 kts 95°
2026-05-06 14:42 40.70026 -74.17136 29 ft 10 kts 98°
2026-05-06 14:43 40.70022 -74.17046 29 ft 9 kts 91°
2026-05-06 14:43 40.70016 -74.16957 29 ft 9 kts 96°
2026-05-06 14:43 40.70010 -74.16868 29 ft 9 kts 95°
2026-05-06 14:43 40.70002 -74.16783 29 ft 7 kts 108°
2026-05-06 14:44 40.69962 -74.16757 29 ft 5 kts 180°
2026-05-06 14:44 40.69936 -74.16758 29 ft 2 kts 183°
2026-05-06 14:44 40.69892 -74.16764 29 ft 10 kts 186°
2026-05-06 14:45 40.69804 -74.16786 29 ft 0 kts 203°
2026-05-06 14:46 40.69774 -74.16805 29 ft 8 kts 205°
2026-05-06 14:46 40.69697 -74.16853 29 ft 15 kts 206°
2026-05-06 14:46 40.69594 -74.16917 29 ft 15 kts 205°
2026-05-06 14:46 40.69514 -74.16969 29 ft 12 kts 206°
2026-05-06 14:47 40.69440 -74.17018 29 ft 11 kts 207°
2026-05-06 14:47 40.69368 -74.17062 29 ft 10 kts 205°
2026-05-06 14:47 40.69276 -74.17120 29 ft 17 kts 206°
2026-05-06 14:47 40.69152 -74.17200 29 ft 22 kts 206°
2026-05-06 14:48 40.69044 -74.17267 29 ft 12 kts 205°
2026-05-06 14:48 40.68981 -74.17307 29 ft 9 kts 207°
2026-05-06 14:48 40.68914 -74.17351 29 ft 12 kts 206°
2026-05-06 14:48 40.68837 -74.17402 29 ft 10 kts 217°
2026-05-06 14:49 40.68834 -74.17470 29 ft 7 kts 296°
2026-05-06 14:49 40.68856 -74.17526 29 ft 6 kts 296°
2026-05-06 14:49 40.68874 -74.17574 29 ft 5 kts 297°
2026-05-06 14:49 40.68889 -74.17616 29 ft 4 kts 295°
2026-05-06 14:50 40.68894 -74.17645 29 ft 2 kts 240°
2026-05-06 14:50 40.68888 -74.17654 29 ft 1 kts 216°
2026-05-06 14:50 40.68876 -74.17661 29 ft 2 kts 206°
2026-05-06 14:50 40.68862 -74.17671 29 ft 1 kts 206°
2026-05-06 14:51 40.68857 -74.17674 29 ft 0 kts 207°
2026-05-06 14:51 40.68853 -74.17677 29 ft 0 kts 207°